www.pogodaiklimat.ru
Время
и дата
03:38 30.12
03:49 30.12
03:53 30.12
04:53 30.12
05:53 30.12
06:53 30.12
07:53 30.12
08:53 30.12
09:53 30.12
10:53 30.12
11:31 30.12
11:53 30.12
12:13 30.12
12:32 30.12
12:39 30.12
12:53 30.12
13:03 30.12
13:37 30.12
13:53 30.12
14:53 30.12
15:06 30.12
15:20 30.12
15:53 30.12
16:53 30.12
17:26 30.12
17:53 30.12
18:30 30.12
18:41 30.12
18:53 30.12
19:53 30.12
20:53 30.12
21:53 30.12
22:53 30.12
23:53 30.12
00:53 31.12
01:53 31.12
02:53 31.12
03:53 31.12
04:53 31.12
05:53 31.12
06:53 31.12
07:53 31.12
08:53 31.12
09:53 31.12
10:53 31.12
11:53 31.12
12:53 31.12
13:53 31.12
Ветер
(напр.,м/с)
Видим. Явления Облачность Т
(С)
Тd
(С)
f
(%)
Тe
(С)
Тes
(С)
Комфортность P
(гПа)
Po
(гПа)
Тmin
(С)
Tmax
(С)
R
(мм)
R24
(мм)
S
(см)
штиль 0 11 км 8/8 810 м -22.8 -23.3 96 -23 -23 1021.9
СВ 1 11 км 5/5 840 м -24.0 -25.0 91 -30 -30 1021.9
штиль 0 11 км 5/5 840 м -23.3 -25.6 81 -23 -23 1022.3 1021.9
штиль 0 16 км ясно -27.2 -28.9 85 -27 -27 1022.4 1021.9
З 1 16 км ясно -26.1 -28.3 82 -33 -33 опасность
обморожения
1022.4 1021.9
штиль 0 16 км ясно -30.0 -30.6 94 -30 -30 1022.6 1022.2
СЗ 1 16 км ясно -28.3 -30.0 85 -36 -36 опасность
обморожения
1022.7 1022.2
С 2 16 км ясно -28.3 -31.1 77 -39 -39 опасность
обморожения
1022.7 1022.2 -30.6 -20.6
С 2 16 км ясно -26.7 -29.4 78 -37 -37 опасность
обморожения
1023.1 1022.5
СВ 1 16 км ясно -30.0 -31.7 85 -40 -40 опасность
обморожения
1022.9 1022.5
СВ 2 14 км 5/5 150 м -30.0 -32.2 81 -43 -43 опасность
обморожения
1022.2
СВ 2 16 км 8/8 м -29.4 -31.7 80 -42 -42 опасность
обморожения
1023.1 1022.5
СВ 2 6 км дымка 10/10 150 м -30.0 -31.7 85 -41 -41 опасность
обморожения
1022.5
СВ 2 4 км дымка 10/10 120 м -28.9 -30.0 90 -40 -40 опасность
обморожения
1022.5
СВ 2 800 м переохлажденный туман 10/10 120 м -28.3 -30.0 85 -39 -39 опасность
обморожения
1022.5
СВ 2 400 м переохлажденный туман ?/? -27.8 -28.9 90 -40 -40 опасность
обморожения
1022.7 1022.2
СВ 2 400 м переохлажденный туман ?/? -27.2 -28.3 90 -38 -38 опасность
обморожения
1022.2
СВ 2 2 км дымка 10/10 90 м -26.1 -27.2 90 -36 -36 опасность
обморожения
1021.9
СВ 1 2 км дымка 10/10 90 м -26.7 -27.2 96 -36 -36 опасность
обморожения
1022.3 1021.9
СВ 2 2 км дымка 10/10 90 м -26.1 -27.8 86 -38 -38 опасность
обморожения
1022.1 1021.5 -30.6 -25.6
СВ 2 5 км дымка 10/10 90 м -26.1 -27.8 86 -36 -36 опасность
обморожения
1021.5
СВ 2 5 км дымка 8/8 м -27.2 -28.9 85 -38 -38 опасность
обморожения
1021.2
СВ 2 16 км 8/8 м -30.0 -31.7 85 -41 -41 опасность
обморожения
1021.5 1021.2
СВ 2 16 км ясно -30.6 -32.8 81 -42 -42 опасность
обморожения
1021.1 1020.5
СВ 1 8 км дымка 2/2 120 м -30.6 -32.8 81 -40 -40 опасность
обморожения
1020.5
СВ 1 11 км 2/2 90 м -30.6 -32.8 81 -40 -40 опасность
обморожения
1020.5 1020.2
СВ 1 11 км 8/8 90 м -31.1 -32.2 90 -39 -39 опасность
обморожения
1019.8
СВ 1 14 км 2/2 90 м -31.1 -33.9 76 -39 -39 опасность
обморожения
1019.8
СВ 1 11 км 2/2 90 м -31.1 -33.3 81 -39 -39 опасность
обморожения
1020.4 1019.8
СВ 1 11 км ясно -31.7 -33.3 86 -42 -42 опасность
обморожения
1020.2 1019.8
нст 1 11 км ясно -31.1 -32.8 85 -39 -39 опасность
обморожения
1019.9 1019.5 -32.8 -26.1
СВ 1 14 км ясно -31.7 -33.9 81 -39 -39 опасность
обморожения
1019.4 1018.8
СВ 1 11 км ясно -31.1 -33.3 81 -39 -39 опасность
обморожения
1019.1 1018.8
СВ 1 11 км ясно -32.2 -34.4 81 -40 -40 опасность
обморожения
1018.8 1018.5
С 2 16 км ясно -30.6 -33.3 77 -42 -42 опасность
обморожения
1018.5 1018.1
СВ 1 16 км ясно -31.1 -33.9 76 -41 -41 опасность
обморожения
1018.5 1018.1
СВ 1 14 км ясно -31.1 -33.9 76 -39 -39 опасность
обморожения
1018.4 1017.8 -33.3 -30.0
СВ 1 16 км ясно -33.3 -35.6 80 -41 -41 опасность
обморожения
1018.4 1017.8
С 1 16 км ясно -31.1 -33.9 76 -41 -41 опасность
обморожения
1018.1 1017.8
С 3 16 км ясно -28.3 -31.1 77 -41 -41 опасность
обморожения
1017.7 1017.1
Ю 1 16 км ясно -31.7 -34.4 77 -39 -39 опасность
обморожения
1017.9 1017.5
штиль 0 16 км ясно -31.1 -33.9 76 -31 -31 опасность
обморожения
1017.9 1017.5
С 2 16 км ясно -27.8 -30.6 77 -39 -39 опасность
обморожения
1017.7 1017.1 -34.4 -27.8
СВ 1 16 км ясно -28.9 -31.7 77 -38 -38 опасность
обморожения
1017.8 1017.5
штиль 0 16 км ясно -29.4 -32.2 77 -29 -29 1018.1 1017.8
штиль 0 16 км ясно -30.6 -33.3 77 -31 -31 опасность
обморожения
1018.2 1017.8
С 2 16 км ясно -27.8 -30.6 77 -39 -39 опасность
обморожения
1018.5 1018.1
СВ 1 16 км ясно -26.1 -28.9 77 -35 -35 опасность
обморожения
1018.7 1018.1
Местоположение метеостанции Ralph Wien Memorial Airport: широта 66.8844 долгота -162.5983 высота над уровнем моря 3 м.
В архиве по умолчанию представлена погода в Коцебу за последние 1-2 суток. Обновление информации о фактической погоде в базе происходит ежечасно! Архивные данные за месяц целиком и за предыдущие месяцы Вы можете получить, выбрав интересующий диапазон дат из раскрывающегося списка и нажав кнопку "Ввод!".
Внимание! Архив погоды МЕТАР в базе сайта по станциям, не включенным в климатический монитор, хранится не более 60 дней. Нет смысла пытаться выбрать более раннюю дату.
*Определитесь, кто Вы:
Внимание! Время в таблицах - местное (без учета летнего времени). Для получения всемирного времени необходимо вычесть поправку, которая равна -9 ч.
Смотрите также архив погоды в соседних городах и на ближайших метеорологических станциях:
Партнеры нашего сайта:      
Пояснения к столбцам:
  • Ветер - указаны скорость ветра в м/с - средняя за 10 мин, порывы в срок и между сроками (в фигурных скобках) и направление, откуда дует ветер: С - северный,
  • СВ - северо-восточный, В - восточный, ЮВ - юго-восточный, Ю - южный, ЮЗ - юго-западный, З - западный, СЗ - северо-западный.
  • Видимость - горизонтальная дальность видимости в метрах или километрах. При видимости от 1 до 10 км при отсутствии осадков обычно наблюдается дымка, при ухудшении видимости до 1 км и менее - туман. В сухую погоду видимость может ухудшаться дымом, пылью или мглою.
  • Явления - указаны атмосферные явления, наблюдавшиеся в срок или в последний час перед сроком; фигурными скобками обозначены явления, наблюдавшиеся между сроками (за 1-3 часа до срока); квадратными скобками обозначены град или гололедные отложения с указанием их диаметра в мм.
  • Облачность - указаны через наклонную черту общая и нижняя облачность в баллах и высота нижней границы облаков в метрах; квадратными скобками обозначены формы облаков: Ci - перистые, Cs - перисто-слоистые, Cc - перисто-кучевые, Ac - высококучевые, As - высокослоистые, Sc - слоисто-кучевые, Ns - слоисто-дождевые, Cu - кучевые, Cb - кучево-дождевые. Подробнее классификацию облаков см. в Атласе облаков (PDF).
  • T - Температура воздуха - температура, измеренная на высоте 2 м над землей.
  • Td - Температура точки росы - температура, при понижении до которой содержащийся в воздухе водяной пар достигнет насыщения.
  • f - Относительная влажность воздуха - влажноcть воздуха, измеренная на высоте 2 м над землей.
  • Te - Эффективная температура - температура, которую ощущает одетый по сезону человек в тени. Характеристика душности погоды. При расчете учитывается влияние влажности воздуха и скорости ветра на теплоощущения человека.
  • Tes - Эффективная температура на солнце - температура, которую ощущает человек, с поправкой на солнечный нагрев. Характеристика знойности погоды. Зависит от высоты солнца над горизонтом, облачности и скорости ветра. Ночью, в пасмурную погоду, а также при ветре 12 м/с и более поправка равна нулю.
  • P - Атмосферное давление - приведенное к уровню моря атмосферное давление.
  • Po - Атмосферное давление - измеренное на уровне метеостанции атмосферное давление.
  • Tmin - Минимальная температура - минимум температуры воздуха на высоте 2 м над землей.
  • Tmax - Максимальная температура - максимум температуры воздуха на высоте 2 м над землей.
  • R - Количество осадков - Количество выпавших осадков за период времени, мм. При наведении курсора мыши на число - период времени, за который выпало указанное количество осадков.
  • R24 - Количество осадков - Количество выпавших осадков за 24 часа, мм.
  • S - Снежный покров - Высота снежного покрова, см. При наведении курсора мыши на число - состояние снежного покрова и степень покрытия местности в баллах.